Regional Weather Roundup
Issued by NWS Northern Indiana

Home | Current Version | Previous Version | Graphics & Text | Print | Product List | Glossary On
Versions: 1 2 3 4 5 6 7 8 9 10 11 12 13 14 15 16 17 18 19 20 21 22 23 24 25 26 27 28 29 30 31 32 33 34 35 36 37 38 39 40 41 42 43 44 45 46 47 48 49 50
000
ASUS43 KIWX 091610
RWRIWX

KIWX WEATHER ROUNDUP
NATIONAL WEATHER SERVICE NORTHERN INDIANA
1100 AM EST FRI DEC 09 2016

NOTE: "FAIR" INDICATES FEW OR NO CLOUDS BELOW 12,000 FEET WITH NO
SIGNIFICANT WEATHER AND/OR OBSTRUCTIONS TO VISIBILITY.

* THESE STATIONS ARE NOT UNDER NWS QUALITY CONTROL. THEY ALSO MAY NOT
  REPORT WEATHER SUCH AS PRECIPITATION OR FOG.

INZ001>027-091700-
NORTHERN INDIANA

CITY           SKY/WX    TMP DP  RH WIND       PRES   REMARKS
GARY*          CLOUDY    27  18  69 W8        30.55R WCI  18
VALPARAISO     CLOUDY    26  17  68 W13       30.52R WCI  15
MICHIGAN CITY* CLOUDY    28  18  64 W12G20    30.51R WCI  18
LAPORTE*       LGT SNOW  24  19  80 W14       30.51R WCI  12
KNOX*          CLOUDY    27   1  33 W16G22    30.51R WCI  14
SOUTH BEND     LGT SNOW  25  22  88 VRB5      30.48R FOG     WCI  19
ELKHART*       MOSUNNY   28  21  74 W14       30.46R WCI  17
GOSHEN         CLOUDY    28  21  75 W14       30.46R WCI  17
MONTICELLO*    CLOUDY    25  16  68 W13       30.54R WCI  13
LOGANSPORT*    CLOUDY    25  19  80 W14G20    30.53S WCI  13
ROCHESTER*     CLOUDY    28  23  80 W10       30.51R WCI  19
WARSAW*        CLOUDY    27  18  69 W12       30.48R WCI  16
ANGOLA*        CLOUDY    25  21  86 W7        30.42S WCI  17
FORT WAYNE     FLURRIES  26  19  74 W14       30.48R WCI  14
HUNTINGTON*    CLOUDY    25  19  75 W13       30.49S WCI  14
PERU/GRISSOM   CLOUDY    24  19  83 W16       30.50R WCI  11
MARION*        CLOUDY    22  19  85 W14       30.52R WCI  10

$$
INZ028>050-091700-
CENTRAL INDIANA

CITY           SKY/WX    TMP DP  RH WIND       PRES   REMARKS
LAFAYETTE      CLOUDY    24  18  77 W12       30.56R WCI  13
KOKOMO*        CLOUDY    23  19  85 W17       30.53R WCI   9
MUNCIE*        CLOUDY    23  17  78 W13       30.52R WCI  11
INDIANAPOLIS   PTSUNNY   24  16  71 W12       30.56R WCI  13

$$
MIZ043>046-050>051-056>058-064>065-071>073-077>080-091700-
SOUTHWEST LOWER MICHIGAN

CITY           SKY/WX    TMP DP  RH WIND       PRES   REMARKS
BATTLE CREEK   LGT SNOW  27  24  89 NW9       30.41S FOG     WCI  18
BENTON HARBOR  LGT SNOW  28  20  71 W13G26    30.47R VSB 3/4 WCI  17
COLDWATER*     CLOUDY    27  24  90 W9        30.42R WCI  17
HILLSDALE*     LGT SNOW  25  21  86 W7        30.39R VSB 1   WCI  17
HOLLAND        LGT SNOW  28  19  69 NW15      30.43R WCI  16
GRAND RAPIDS   FLURRIES  27  16  63 NW9       30.41R WCI  18
KALAMAZOO      LGT SNOW  28  22  78 W7        30.42R WCI  21
STURGIS*       CLOUDY    26  23  87 W7        30.42S WCI  18
THREE RIVERS*  LGT SNOW  27  24  87 W6        30.44S WCI  20

$$
OHZ001>008-015>018-024>025-091700-
NORTHWEST OHIO

CITY           SKY/WX    TMP DP  RH WIND       PRES   REMARKS
WAUSEON*       CLOUDY    28  23  80 W13       30.42S WCI  18
DEFIANCE       LGT SNOW  27  21  78 VRB3      30.45S
FINDLAY        LGT SNOW  26  18  71 W16       30.44R WCI  14
TOLEDO EXPRESS CLOUDY    27  24  89 W13       30.42R WCI  16
TOLEDO METCALF CLOUDY    29  24  82 W10       30.43S WCI  20
LIMA           FLURRIES  23  20  88 W14       30.45S WCI  11

$$
AND FOR LAKE MICHIGAN COASTAL AND OPEN LAKE BUOY OBSERVATIONS

STATION/POSITION TEMP    WIND        PRES    VSBY  WAVE
                 AIR SEA DIR/SP/G                  HT/PER
                 (F)     (DEG/KT/KT) (MB)    (MI)  (FT/S)
CALUMET HARBOR    25     280/  7/ 12 1033.4R
BURNS HARBOR      27     270/ 16/ 21 1033.5R
SAINT JOSEPH      30     280/ 17/ 19 1031.8

$$
&&



USA.gov is the U.S. government's official web portal to all federal, state and local government web resources and services.